| time (UTC) | temp F | wind direction | speed knots | gust knots | rain 1hr in | rain 24hr in | rain mn in | humidity % | barometer mb |
| 20260502163038 | 60 | 71 | 0.0 | 1.7 | 0.00 | 0.00 | 0.00 | 75 | 1013.7 |
| 20260502161537 | 61 | 122 | 0.0 | 1.7 | 0.00 | 0.00 | 0.00 | 74 | 1013.7 |
| 20260502151532 | 59 | 97 | 0.9 | 3.5 | 0.00 | 0.00 | 0.00 | 77 | 1014.2 |
| 20260502123015 | 66 | 264 | 0.9 | 7.0 | 0.00 | 0.00 | 0.00 | 62 | 1014.8 |
| 20260502121516 | 66 | 239 | 1.7 | 7.8 | 0.00 | 0.00 | 0.00 | 62 | 1015.1 |
| 20260502114509 | 65 | 266 | 1.7 | 7.0 | 0.00 | 0.00 | 0.00 | 67 | 1014.8 |
| 20260502113012 | 64 | 235 | 2.6 | 9.6 | 0.00 | 0.00 | 0.00 | 68 | 1015.0 |
| 20260502111504 | 64 | 193 | 2.6 | 7.0 | 0.00 | 0.00 | 0.00 | 68 | 1015.2 |
| 20260502110003 | 63 | 334 | 2.6 | 7.8 | 0.00 | 0.00 | 0.00 | 71 | 1015.2 |
| 20260502104501 | 63 | 138 | 1.7 | 7.8 | 0.00 | 0.00 | 0.00 | 72 | 1015.1 |
| 20260502103106 | 62 | 205 | 2.6 | 7.8 | 0.00 | 0.00 | 0.00 | 71 | 1015.2 |
| 20260502101620 | 61 | 158 | 3.5 | 9.6 | 0.00 | 0.00 | 0.00 | 74 | 1015.4 |
| 20260502071526 | 55 | 267 | 0.9 | 4.3 | 0.00 | 0.00 | 0.00 | 82 | 1015.4 |
| 20260502070025 | 53 | 274 | 0.9 | 2.6 | 0.00 | 0.00 | 0.00 | 85 | 1015.6 |
| 20260502064529 | 53 | 242 | 0.9 | 3.5 | 0.00 | 0.00 | 0.00 | 84 | 1015.6 |
| 20260502063023 | 52 | 285 | 0.0 | 3.5 | 0.00 | 0.00 | 0.00 | 85 | 1015.4 |
| 20260502061522 | 52 | 205 | 0.9 | 4.3 | 0.00 | 0.00 | 0.00 | 85 | 1015.5 |
| 20260502060023 | 52 | 269 | 0.9 | 6.1 | 0.00 | 0.00 | 0.00 | 85 | 1015.5 |
| 20260502054522 | 52 | 260 | 0.0 | 4.3 | 0.00 | 0.00 | 0.00 | 85 | 1015.4 |
| 20260502053020 | 51 | 229 | 0.0 | 3.5 | 0.00 | 0.00 | 0.00 | 85 | 1015.5 |
| 20260502051520 | 52 | 193 | 0.9 | 3.5 | 0.00 | 0.00 | 0.00 | 85 | 1015.6 |
| 20260502050018 | 52 | 173 | 0.9 | 5.2 | 0.00 | 0.00 | 0.00 | 85 | 1015.5 |
| 20260502044517 | 52 | 158 | 0.9 | 3.5 | 0.00 | 0.00 | 0.00 | 86 | 1015.5 |
| 20260502043017 | 52 | 193 | 0.9 | 4.3 | 0.00 | 0.00 | 0.00 | 86 | 1015.4 |
| 20260502041513 | 52 | 250 | 0.0 | 5.2 | 0.00 | 0.00 | 0.00 | 86 | 1015.5 |
| 20260502040013 | 52 | 194 | 1.7 | 5.2 | 0.00 | 0.00 | 0.00 | 86 | 1015.5 |
| 20260502034511 | 53 | 303 | 0.9 | 3.5 | 0.00 | 0.00 | 0.00 | 87 | 1015.6 |
| 20260502033008 | 53 | 225 | 0.0 | 1.7 | 0.00 | 0.00 | 0.00 | 87 | 1015.8 |
| 20260502031507 | 53 | 273 | 0.0 | 0.9 | 0.00 | 0.00 | 0.00 | 87 | 1015.8 |
| 20260502030009 | 53 | 22 | 0.0 | 0.0 | 0.00 | 0.00 | 0.00 | 86 | 1015.8 |
| 20260502024504 | 52 | 22 | 0.0 | 0.0 | 0.00 | 0.00 | 0.00 | 86 | 1015.9 |
| 20260502023007 | 52 | 22 | 0.0 | 0.0 | 0.00 | 0.00 | 0.00 | 86 | 1015.9 |
| 20260502021604 | 52 | 22 | 0.0 | 0.0 | 0.00 | 0.00 | 0.00 | 86 | 1016.1 |
| 20260502020058 | 53 | 22 | 0.0 | 0.0 | 0.00 | 0.00 | 0.00 | 85 | 1016.2 |
| 20260502014558 | 53 | 22 | 0.0 | 0.9 | 0.00 | 0.00 | 0.00 | 85 | 1016.2 |
| 20260502013059 | 53 | 22 | 0.0 | 0.0 | 0.00 | 0.00 | 0.00 | 85 | 1016.4 |
| 20260502011609 | 53 | 22 | 0.0 | 0.0 | 0.00 | 0.00 | 0.00 | 84 | 1016.4 |
| 20260502010054 | 54 | 24 | 0.0 | 0.9 | 0.00 | 0.00 | 0.00 | 83 | 1016.6 |
| 20260502004601 | 53 | 22 | 0.0 | 0.9 | 0.00 | 0.00 | 0.00 | 84 | 1016.7 |
| 20260502003049 | 53 | 20 | 0.0 | 0.9 | 0.00 | 0.00 | 0.00 | 84 | 1016.8 |
| 20260502001549 | 53 | 20 | 0.0 | 0.9 | 0.00 | 0.00 | 0.00 | 83 | 1016.8 |
| 20260502000106 | 54 | 20 | 0.0 | 0.9 | 0.00 | 0.00 | 0.00 | 82 | 1016.8 |
| 20260501234546 | 53 | 302 | 0.0 | 0.0 | 0.00 | 0.00 | 0.00 | 84 | 1016.9 |
| 20260501233044 | 53 | 299 | 0.0 | 0.0 | 0.00 | 0.00 | 0.00 | 83 | 1017.0 |
| 20260501231551 | 53 | 13 | 0.0 | 0.9 | 0.00 | 0.00 | 0.00 | 82 | 1017.1 |
| 20260501230039 | 54 | 15 | 0.0 | 0.0 | 0.00 | 0.00 | 0.00 | 80 | 1017.1 |
| 20260501224538 | 54 | 15 | 0.0 | 0.0 | 0.00 | 0.00 | 0.00 | 81 | 1017.1 |
| 20260501223037 | 54 | 18 | 0.0 | 2.6 | 0.00 | 0.00 | 0.00 | 79 | 1017.0 |
| 20260501221552 | 54 | 219 | 0.0 | 0.9 | 0.00 | 0.00 | 0.00 | 80 | 1016.8 |
| 20260501220043 | 54 | 255 | 0.0 | 0.9 | 0.00 | 0.00 | 0.00 | 78 | 1017.0 |
| 20260501214536 | 56 | 238 | 0.0 | 0.9 | 0.00 | 0.00 | 0.00 | 75 | 1016.8 |
| 20260501213039 | 57 | 242 | 0.0 | 0.0 | 0.00 | 0.00 | 0.00 | 74 | 1016.8 |
| 20260501211534 | 56 | 242 | 0.0 | 1.7 | 0.00 | 0.00 | 0.00 | 75 | 1016.7 |
| 20260501210033 | 54 | 232 | 0.0 | 0.0 | 0.00 | 0.00 | 0.00 | 78 | 1016.9 |
| 20260501204533 | 54 | 232 | 0.0 | 0.9 | 0.00 | 0.00 | 0.00 | 79 | 1017.0 |
| 20260501203031 | 55 | 115 | 0.0 | 0.0 | 0.00 | 0.00 | 0.00 | 75 | 1016.9 |
| 20260501201531 | 56 | 115 | 0.0 | 0.0 | 0.00 | 0.00 | 0.00 | 74 | 1017.0 |
| 20260501200030 | 56 | 115 | 0.0 | 0.9 | 0.00 | 0.00 | 0.00 | 73 | 1017.1 |
| 20260501194530 | 56 | 115 | 0.0 | 0.9 | 0.00 | 0.00 | 0.00 | 73 | 1017.1 |
| 20260501193035 | 56 | 91 | 0.0 | 0.9 | 0.00 | 0.00 | 0.00 | 73 | 1017.1 |
| 20260501191533 | 57 | 65 | 0.0 | 0.9 | 0.00 | 0.00 | 0.00 | 73 | 1017.2 |
| 20260501190048 | 58 | 60 | 0.0 | 1.7 | 0.00 | 0.00 | 0.00 | 70 | 1017.2 |
| 20260501184534 | 59 | 156 | 0.0 | 2.6 | 0.00 | 0.00 | 0.00 | 68 | 1017.3 |
| 20260501183025 | 60 | 84 | 0.0 | 1.7 | 0.00 | 0.00 | 0.00 | 66 | 1017.4 |
| 20260501181524 | 61 | 89 | 0.0 | 1.7 | 0.00 | 0.00 | 0.00 | 64 | 1017.4 |
| 20260501180024 | 63 | 44 | 0.0 | 2.6 | 0.00 | 0.00 | 0.00 | 63 | 1017.5 |
| 20260501174526 | 65 | 51 | 0.0 | 1.7 | 0.00 | 0.00 | 0.00 | 60 | 1017.7 |
| 20260501173024 | 65 | 61 | 1.7 | 5.2 | 0.00 | 0.00 | 0.00 | 56 | 1017.7 |